Location: Chena
(64.8152°N, 147.9227°W)
Time: 01:41:26
(UTC+00:00)

Vanguard 2 - Pass Details

Date: 02 March 2021
Orbit: 552 x 2938 km, 32.9° (Epoch: 10 April)

Event Time Altitude Azimuth Distance (km) Brightness Sun altitude
Rises 15:59:01 0° 230° (SW) 6,404 11.8 -6.8°
Reaches altitude 10° 16:05:20 10° 214° (SSW) 5,637 11.6 -6.1°
Maximum altitude 16:14:43 17° 181° (S) 5,146 11.8 -5.1°
Drops below altitude 10° 16:24:05 10° 148° (SSE) 5,612 12.5 -4.1°
Sets 16:30:20 0° 131° (SE) 6,365 13.3 -3.5°
